www.pogodaiklimat.ru

Погода и климат >> Архив погоды >> Норвегия >> Намсскуган


ПОГОДА в Намсскугане

  • Прогноз погоды в Намсскугане
  • Монитор погоды в Намсскугане

АРХИВ ПОГОДЫ в Намсскугане

Время (UTC), дата Ветер
(напр.,м/с)
 
Видим.   Явления Облачность Т
(С)
Тd
(С)
f
(%)
Тe
(С)
Тes
(С)
Комфортность P
(гПа)
Po
(гПа)
Тmin
(С)
Tmax
(С)
R
(мм)
R24
(мм)
S
(см)
16 18.08 В 3-5
{5}
н/о н/о +18.6 +10.7 60 +19 +19 1000.1 983.6
17 18.08 В 3-5
{6}
н/о н/о +17.7 +10.6 63 +18 +18 999.9 983.4
18 18.08 СВ 2-3
{6}
н/о н/о +17.1 +10.7 66 +17 +17 999.8 983.2 +12.2 +19.2
19 18.08 СВ 2-4
{4}
н/о н/о +14.7 +10.5 76 +14 +14 999.8 983.1
20 18.08 СВ 2-3
{4}
н/о н/о +13.2 +10.4 83 +12 +12 999.8 983.1
21 18.08 С 2-5
{5}
н/о н/о +12.8 +10.0 83 +12 +12 999.7 982.9
22 18.08 С 3-5
{5}
н/о н/о +12.9 +9.5 80 +12 +12 999.4 982.7
23 18.08 СВ 2-3
{5}
н/о н/о +12.7 +9.5 81 +12 +12 999.2 982.5
00 19.08 СВ 2-3
{5}
н/о н/о +11.5 +9.4 87 +10 +10 999.1 982.3 0.2
01 19.08 СВ 1-3
{4}
н/о н/о +11.0 +8.9 87 +11 +11 998.9 982.0
02 19.08 С 2-4
{4}
н/о н/о +10.5 +8.6 88 +9 +9 998.7 981.8
03 19.08 С 2-4
{4}
н/о н/о +10.1 +8.2 88 +9 +9 998.4 981.5
04 19.08 С 2-3
{4}
н/о н/о +10.7 +8.5 86 +9 +9 998.1 981.2
05 19.08 СВ 2-4
{5}
н/о н/о +10.2 +8.0 86 +9 +9 998.1 981.2
06 19.08 С 2-3
{5}
н/о н/о +10.9 +8.3 84 +10 +10 997.7 980.9 +10.0 +17.1 0.2
07 19.08 С 2-3
{5}
н/о н/о +11.5 +8.7 83 +10 +10 997.4 980.6
08 19.08 СВ 3-5
{5}
н/о н/о +17.0 +10.2 64 +17 +17 996.6 980.1
09 19.08 В 3-5
{6}
н/о н/о +18.1 +10.7 62 +18 +18 996.3 979.8
10 19.08 В 3-4
{4}
н/о н/о +18.9 +10.7 59 +20 +20 996.1 979.7
11 19.08 СВ 2-4
{5}
н/о н/о +18.7 +10.0 57 +20 +20 996.3 979.9
12 19.08 З 2-3
{6}
н/о н/о +20.7 +9.0 47 +23 +23 комфорт 996.5 980.2
13 19.08 ЮЗ 2-3
{4}
н/о н/о +20.1 +8.5 47 +22 +22 комфорт 996.7 980.3
14 19.08 ЮЗ 2-6
{6}
н/о н/о +21.1 +8.4 44 +22 +22 комфорт 996.9 980.7
15 19.08 ЮЗ 3-4
{7}
н/о н/о +21.2 +8.8 45 +22 +22 комфорт 997.1 980.8
16 19.08 ЮЗ 3-4
{5}
н/о н/о +20.8 +8.1 44 +22 +22 комфорт 997.4 981.1
17 19.08 ЮЗ 2-4
{4}
н/о н/о +20.4 +7.8 44 +22 +22 комфорт 997.7 981.4
18 19.08 штиль 0
{7}
н/о н/о +17.1 +10.5 65 +17 +17 998.4 981.9 +10.5 +21.5
19 19.08 штиль 0 н/о н/о +15.6 +10.8 73 +15 +15 999.4 982.8
20 19.08 ЮЗ 3-6
{11}
н/о н/о +12.4 +10.1 86 +11 +11 1001.6 984.8
21 19.08 штиль 0
{4}
н/о н/о +11.8 +10.6 92 +11 +11 1002.1 985.3
22 19.08 штиль 0 н/о н/о +11.5 +10.4 93 +11 +11 1002.6 985.7
23 19.08 штиль 0
{1}
н/о н/о +11.0 +10.1 94 +10 +10 1003.0 986.1
00 20.08 штиль 0
{11}
н/о н/о +9.9 +9.0 94 +9 +9 1003.4 986.4 7
01 20.08 штиль 0
{2}
н/о н/о +9.6 +8.7 94 +9 +9 1003.8 986.8
02 20.08 штиль 0 н/о н/о +8.9 +8.1 95 +8 +8 1004.2 987.1
03 20.08 штиль 0 н/о н/о +8.5 +7.8 95 +8 +8 1004.6 987.5
04 20.08 штиль 0 н/о н/о +7.8 +7.1 95 +7 +7 1005.1 987.9
05 20.08 штиль 0-1
{3}
н/о н/о +8.0 +7.3 95 +7 +7 1005.6 988.4
06 20.08 штиль 0
{3}
н/о н/о +10.3 +9.5 95 +9 +9 1005.9 988.8 +7.3 +17.1 7
07 20.08 С 1-2
{3}
н/о н/о +10.7 +9.9 95 +10 +10 1006.1 989.1
08 20.08 Ю 1-2
{3}
н/о н/о +12.0 +10.7 92 +12 +12 1006.5 989.6
09 20.08 штиль 0-1
{2}
н/о н/о +15.1 +12.4 84 +15 +15 1006.6 989.8
10 20.08 ЮЗ 2-4
{4}
н/о н/о +16.8 +10.9 68 +17 +17 1006.7 990.0
11 20.08 Ю 2-4
{4}
н/о н/о +17.3 +10.7 65 +18 +18 1007.0 990.4
12 20.08 ЮЗ 2-4
{4}
н/о н/о +16.8 +10.4 66 +17 +17 1007.5 990.8
13 20.08 З 2-3
{4}
н/о н/о +17.7 +10.6 63 +18 +18 1007.8 991.2
14 20.08 Ю 1-3
{4}
н/о н/о +17.9 +10.0 60 +19 +19 1007.8 991.1
15 20.08 штиль 0-1
{2}
н/о н/о +18.3 +9.4 56 +19 +19 1007.8 991.2
16 20.08 штиль 0-1
{2}
н/о н/о +15.8 +12.9 83 +16 +16 1008.5 991.7
17 20.08 В 1-3
{7}
н/о н/о +15.0 +12.1 83 +16 +16 1009.3 992.5
18 20.08 В 3-4
{7}
н/о н/о +14.4 +11.0 80 +13 +13 1010.1 993.2 +10.0 +19.6 0.2
19 20.08 З 2-4
{4}
н/о н/о +14.6 +9.2 70 +14 +14 1010.9 994.1
20 20.08 ЮЗ 2-2
{5}
н/о н/о +12.6 +8.3 75 +12 +12 1011.6 994.6
21 20.08 штиль 0-1
{2}
н/о н/о +10.5 +8.1 85 +10 +10 1012.2 995.1
22 20.08 СВ 1-2
{2}
н/о н/о +9.8 +8.7 93 +9 +9 1012.8 995.6
23 20.08 СЗ 1-1
{2}
н/о н/о +9.9 +8.8 93 +9 +9 1013.3 996.2
00 21.08 штиль 0
{5}
н/о н/о +9.1 +8.0 93 +8 +8 1013.8 996.5 0.2
01 21.08 В 1-1
{2}
н/о н/о +8.2 +7.3 94 +7 +7 1014.2 996.9
02 21.08 СВ 1-1
{2}
н/о н/о +9.2 +8.3 94 +8 +8 1014.4 997.2
03 21.08 штиль 0-2
{2}
н/о н/о +9.5 +8.6 94 +9 +9 1014.6 997.4
04 21.08 ЮЗ 3-4
{4}
н/о н/о +10.3 +8.1 86 +8 +8 1014.6 997.4
05 21.08 ЮЗ 2-4
{5}
н/о н/о +11.2 +8.4 83 +10 +10 1015.1 998.0
06 21.08 ЮЗ 2-4
{5}
н/о н/о +10.9 +9.3 90 +10 +10 1015.7 998.6 +8.2 +14.7 0.2
07 21.08 ЮЗ 4-6
{6}
н/о н/о +13.1 +9.7 80 +11 +11 1015.8 998.7
08 21.08 ЮЗ 2-3
{7}
н/о н/о +12.7 +9.0 78 +12 +12 1016.3 999.2
09 21.08 ЮЗ 3-6
{9}
н/о н/о +12.5 +8.8 78 +11 +11 1016.8 999.7
10 21.08 ЮЗ 4-9
{9}
н/о н/о +11.2 +9.5 89 +9 +9 1017.5 1000.3
11 21.08 ЮЗ 4-8
{9}
н/о н/о +11.6 +9.0 84 +9 +9 1018.0 1000.9
12 21.08 ЮЗ 4-8
{9}
н/о н/о +11.6 +7.9 78 +9 +9 1018.6 1001.4 0.4
13 21.08 З 4-6
{8}
н/о н/о +12.2 +8.1 76 +10 +10 1018.8 1001.7
14 21.08 ЮЗ 5-9
{9}
н/о н/о +12.4 +7.3 71 +10 +10 1019.1 1002.0
15 21.08 ЮЗ 4-8
{8}
н/о н/о +11.8 +7.7 76 +10 +10 1019.4 1002.3
16 21.08 ЮЗ 3-5
{7}
н/о н/о +10.9 +9.2 89 +9 +9 1019.8 1002.5
17 21.08 ЮЗ 4-6
{6}
н/о н/о +11.2 +8.6 84 +9 +9 1019.9 1002.6
18 21.08 ЮЗ 4-8
{9}
н/о н/о +10.7 +8.1 84 +8 +8 1020.3 1003.0 +10.7 +13.5 0.6
19 21.08 ЮЗ 2-3
{7}
н/о н/о +10.4 +8.8 90 +9 +9 1020.5 1003.3
20 21.08 ЮЗ 2-3
{5}
н/о н/о +9.8 +7.9 88 +8 +8 1020.7 1003.4
21 21.08 ЮЗ 3-4
{4}
н/о н/о +9.5 +7.5 87 +7 +7 1021.1 1003.8
22 21.08 ЮЗ 2-3
{4}
н/о н/о +9.1 +7.4 89 +7 +7 1021.3 1004.0
23 21.08 Ю 2-3
{4}
н/о н/о +8.4 +6.9 90 +6 +6 1021.4 1004.0
00 22.08 З 1-2
{7}
н/о н/о +8.5 +7.0 90 +8 +8 1021.4 1004.0
01 22.08 Ю 1-2
{3}
н/о н/о +6.4 +5.4 93 +5 +5 1021.6 1004.0
02 22.08 штиль 0-1
{2}
н/о н/о +5.3 +4.4 94 +4 +4 1021.6 1004.0
03 22.08 штиль 0
{2}
н/о н/о +5.2 +4.3 94 +4 +4 1021.6 1004.0
04 22.08 штиль 0-1
{2}
н/о н/о +5.0 +4.3 95 +4 +4 1021.6 1004.0
05 22.08 штиль 0-2
{2}
н/о н/о +5.5 +4.8 95 +4 +4 1021.5 1003.9
06 22.08 штиль 0-1
{3}
н/о н/о +7.4 +6.5 94 +6 +6 1021.0 1003.5 +4.5 +10.7 0.2
07 22.08 штиль 0-1
{2}
н/о н/о +11.2 +8.1 81 +11 +11 1020.4 1003.2
08 22.08 В 1-3
{3}
н/о н/о +13.4 +7.8 69 +14 +14 1019.8 1002.7
09 22.08 СВ 2-4
{4}
н/о н/о +14.4 +6.5 59 +14 +14 1018.9 1001.9
10 22.08 СВ 3-5
{5}
н/о н/о +15.5 +6.0 53 +15 +15 1018.2 1001.2
11 22.08 В 3-5
{5}
н/о н/о +16.3 +6.7 53 +16 +16 1017.2 1000.4
12 22.08 В 4-6
{7}
н/о н/о +16.0 +7.0 55 +15 +15 1016.4 999.5
13 22.08 В 3-4
{7}
н/о н/о +18.3 +7.4 49 +19 +19 1015.4 998.6
14 22.08 ЮВ 3-6
{7}
н/о н/о +16.9 +7.6 54 +17 +17 1014.8 998.0
15 22.08 В 3-5
{6}
н/о н/о +18.0 +8.8 55 +18 +18 1013.9 997.2
16 22.08 В 3-6
{7}
н/о н/о +17.4 +8.3 55 +17 +17 1013.4 996.6
17 22.08 В 3-6
{6}
н/о н/о +17.0 +8.4 57 +17 +17 1012.6 995.9
18 22.08 В 2-4
{7}
н/о н/о +16.2 +8.2 59 +16 +16 1012.5 995.7 +7.4 +18.8
19 22.08 Ю 2-3
{6}
н/о н/о +14.5 +9.3 71 +14 +14 1012.6 995.7
20 22.08 С 1-2
{3}
н/о н/о +12.5 +10.9 90 +12 +12 1012.9 995.9
21 22.08 СВ 1-2
{3}
н/о н/о +12.0 +10.7 92 +12 +12 1012.7 995.7
22 22.08 С 1-2
{3}
н/о н/о +11.8 +10.7 93 +12 +12 1012.4 995.3
23 22.08 В 1-1
{2}
н/о н/о +11.7 +10.6 93 +11 +11 1012.3 995.2
00 23.08 штиль 0
{6}
н/о н/о +11.5 +10.6 94 +11 +11 1012.1 995.1 5
01 23.08 штиль 0-1
{1}
н/о н/о +11.3 +10.4 94 +11 +11 1012.1 995.0
02 23.08 ЮЗ 1-2
{4}
н/о н/о +11.2 +10.3 94 +11 +11 1011.9 994.8
03 23.08 штиль 0-1
{2}
н/о н/о +11.0 +10.1 94 +10 +10 1011.7 994.6
04 23.08 штиль 0-1
{2}
н/о н/о +10.9 +10.0 94 +10 +10 1011.6 994.5
05 23.08 штиль 0-1
{2}
н/о н/о +11.0 +10.1 94 +10 +10 1011.7 994.6
06 23.08 Ю 1-2
{4}
н/о н/о +11.2 +10.3 94 +11 +11 1012.0 994.9 +10.8 +16.2 7
07 23.08 ЮЗ 1-2
{2}
н/о н/о +12.1 +10.7 91 +12 +12 1012.1 995.1
08 23.08 Ю 2-4
{4}
н/о н/о +13.5 +10.7 83 +13 +13 1012.0 995.1
09 23.08 ЮЗ 3-5
{5}
н/о н/о +14.8 +10.0 73 +14 +14 1012.1 995.2
10 23.08 Ю 2-4
{6}
н/о н/о +15.5 +9.9 69 +15 +15 1012.3 995.5
11 23.08 Ю 2-3
{5}
н/о н/о +15.3 +9.9 70 +15 +15 1012.7 995.9
12 23.08 З 2-4
{6}
н/о н/о +17.3 +8.2 55 +18 +18 1013.1 996.3
13 23.08 СЗ 2-4
{6}
н/о н/о +17.2 +8.1 55 +18 +18 1013.5 996.8
14 23.08 СЗ 4-7
{7}
н/о н/о +16.5 +7.7 56 +16 +16 1014.3 997.5
15 23.08 З 3-5
{7}
н/о н/о +16.2 +6.9 54 +16 +16 1014.8 998.0
16 23.08 СЗ 3-5
{8}
н/о н/о +16.2 +7.2 55 +16 +16 1015.3 998.4
17 23.08 СЗ 3-5
{7}
н/о н/о +15.7 +8.0 60 +15 +15 1016.1 999.2
18 23.08 СЗ 3-4
{8}
н/о н/о +14.1 +7.9 66 +13 +13 1017.2 1000.2 +11.2 +18.8
19 23.08 СЗ 1-3
{4}
н/о н/о +11.0 +8.1 82 +11 +11 1018.1 1000.9
20 23.08 штиль 0-1
{2}
н/о н/о +8.6 +7.1 90 +8 +8 1019.1 1001.8
21 23.08 штиль 0
{2}
н/о н/о +7.1 +5.9 92 +6 +6 1019.8 1002.4
22 23.08 штиль 0 н/о н/о +6.7 +5.8 94 +6 +6 1020.7 1003.2
23 23.08 штиль 0 н/о н/о +6.6 +5.7 94 +6 +6 1021.2 1003.7
00 24.08 штиль 0-1
{4}
н/о н/о +5.8 +4.9 94 +5 +5 1021.7 1004.1 0.3
01 24.08 штиль 0 н/о н/о +4.0 +3.1 94 +3 +3 1022.5 1004.8
02 24.08 штиль 0
{2}
н/о н/о +4.2 +3.5 95 +3 +3 1023.2 1005.5
03 24.08 штиль 0-1
{2}
н/о н/о +4.6 +3.9 95 +3 +3 1023.6 1005.9
04 24.08 штиль 0 н/о н/о +4.9 +4.2 95 +4 +4 1024.0 1006.3
05 24.08 штиль 0 н/о н/о +5.8 +5.1 95 +5 +5 1024.2 1006.5
06 24.08 штиль 0
{2}
н/о н/о +6.6 +5.9 95 +6 +6 1024.7 1007.1 +3.7 +14.1 0.3
07 24.08 В 1-2
{2}
н/о н/о +8.4 +7.7 95 +8 +8 1024.5 1007.1
08 24.08 штиль 0-1
{2}
н/о н/о +10.4 +9.6 95 +10 +10 1024.5 1007.2
09 24.08 СВ 1-2
{2}
н/о н/о +14.7 +9.9 73 +15 +15 1024.0 1007.0
10 24.08 Ю 1-2
{3}
н/о н/о +17.4 +8.3 55 +18 +18 1023.7 1006.7
11 24.08 З 2-3
{3}
н/о н/о +17.4 +8.3 55 +18 +18 1023.4 1006.5
12 24.08 З 2-4
{4}
н/о н/о +18.5 +8.8 53 +19 +19 1023.5 1006.6
13 24.08 ЮЗ 2-3
{4}
н/о н/о +18.9 +9.1 53 +20 +20 1023.2 1006.4
14 24.08 З 1-2
{3}
н/о н/о +18.2 +9.3 56 +19 +19 1023.0 1006.1
15 24.08 штиль 0-1
{3}
н/о н/о +18.2 +9.0 55 +18 +18 1022.7 1005.8
16 24.08 штиль 0 н/о н/о +17.6 +11.9 69 +18 +18 1022.1 1005.3
17 24.08 штиль 0 н/о н/о +16.9 +11.2 69 +17 +17 1021.7 1004.8
18 24.08 С 1-2
{4}
н/о н/о +16.1 +10.8 71 +17 +17 1021.3 1004.4 +6.6 +19.6
19 24.08 штиль 0 н/о н/о +14.3 +12.3 88 +14 +14 1021.6 1004.5
20 24.08 СВ 1-2
{2}
н/о н/о +13.6 +12.0 90 +14 +14 1021.5 1004.4
21 24.08 С 1-2
{2}
н/о н/о +13.3 +12.0 92 +13 +13 1021.2 1004.1
22 24.08 СЗ 1-2
{3}
н/о н/о +12.8 +11.7 93 +13 +13 1020.9 1003.8
23 24.08 З 1-2
{3}
н/о н/о +12.7 +11.6 93 +13 +13 1021.6 1004.5
00 25.08 В 1-2
{4}
н/о н/о +12.2 +11.1 93 +12 +12 1020.7 1003.5 2
01 25.08 СВ 2-3
{3}
н/о н/о +12.3 +11.2 93 +11 +11 1020.3 1003.2
02 25.08 С 1-2
{3}
н/о н/о +12.2 +11.3 94 +12 +12 1020.1 1002.9
03 25.08 В 1-2
{3}
н/о н/о +12.0 +11.1 94 +12 +12 1019.8 1002.6
04 25.08 СВ 2-4
{4}
н/о н/о +12.0 +11.1 94 +11 +11 1019.2 1002.1
05 25.08 СЗ 1-2
{4}
н/о н/о +12.2 +11.3 94 +12 +12 1019.1 1002.0
06 25.08 СВ 1-2
{4}
н/о н/о +12.5 +11.6 94 +12 +12 1018.9 1001.8 +11.8 +16.0 3
07 25.08 -3
{3}
н/о н/о +12.8 +11.9 94 1018.4 1001.3
08 25.08 С 1-3
{4}
н/о н/о +12.9 +11.8 93 +13 +13 1018.3 1001.2
09 25.08 Ю 1-3
{4}
н/о н/о +13.2 +12.3 94 +13 +13 1018.0 1000.9
10 25.08 штиль 0-1
{2}
н/о н/о +13.6 +12.7 94 +13 +13 1017.6 1000.5
11 25.08 З 1-2
{2}
н/о н/о +13.9 +12.8 93 +14 +14 1017.4 1000.4
12 25.08 ЮЗ 1-3
{4}
н/о н/о +14.0 +12.7 92 +14 +14 1017.3 1000.3 15
13 25.08 ЮЗ 2-5
{5}
н/о н/о +14.5 +13.6 94 +14 +14 1017.7 1000.7
14 25.08 ЮЗ 4-8
{10}
н/о н/о +15.1 +12.1 82 +14 +14 1018.4 1001.5
15 25.08 ЮЗ 5-8
{10}
н/о н/о +15.2 +10.8 75 +14 +14 1019.0 1002.1
16 25.08 З 5-9
{10}
н/о н/о +15.5 +9.6 68 +14 +14 1019.2 1002.2
17 25.08 З 4-6
{10}
н/о н/о +14.2 +8.2 67 +13 +13 1019.6 1002.5

 

Местоположение метеостанции Намсскуган (Норвегия): широта 64.74 долгота 12.85 высота над уровнем моря 140 м.

В архиве по умолчанию представлена погода в Намсскугане за последнюю неделю. Архивные данные за месяц целиком и за предыдущие месяцы, начиная с января 2011 года, Вы можете получить, выбрав интересующий диапазон дат из раскрывающегося списка и нажав кнопку "Ввод!".


*Определитесь, кто Вы:
робот инопланетянин человек

Внимание! Время в таблицах - всемирное. Для получения местного времени необходимо прибавить поправку, которая равна 1 ч.

Смотрите также архив погоды в соседних городах и на ближайших метеорологических станциях:

Погода в Гартлэнде (Норвегия) (32 км)
Погода в Маяватн (Норвегия) (54 км)
Погода на Сомна-Квалёйа (Норвегия) (67 км)
Погода в Снаса-Кжевя (Норвегия) (67 км)
Погода в Намсос аэропорту (Норвегия) (68 км)
Погода в Аддеде (Швеция) (71 км)
Погода в Рорвик аэропорту (Норвегия) (82 км)
Погода в Брённёйсунн аэропорту (Норвегия) (85 км)
Погода в Стекенйокке (Швеция) (88 км)
Погода в Лаксфорсе (Норвегия) (100 км)

Пояснения к столбцам:

Ветер - указаны скорость ветра в м/с - средняя за 10 мин, порывы в срок и между сроками (в фигурных скобках) и направление, откуда дует ветер: С - северный, СВ - северо-восточный, В - восточный, ЮВ - юго-восточный, Ю - южный, ЮЗ - юго-западный, З - западный, СЗ - северо-западный.
Видимость - горизонтальная дальность видимости в метрах или километрах. При видимости от 1 до 10 км при отсутствии осадков обычно наблюдается дымка, при ухудшении видимости до 1 км и менее - туман. В сухую погоду видимость может ухудшаться дымом, пылью или мглою.
Явления - указаны атмосферные явления, наблюдавшиеся в срок или в последний час перед сроком; фигурными скобками обозначены явления, наблюдавшиеся между сроками (за 1-3 часа до срока); квадратными скобками обозначены град или гололедные отложения с указанием их диаметра в мм.
Облачность - указаны через наклонную черту общая и нижняя облачность в баллах и высота нижней границы облаков в метрах; квадратными скобками обозначены формы облаков: Ci - перистые, Cs - перисто-слоистые, Cc - перисто-кучевые, Ac - высококучевые, As - высокослоистые, Sc - слоисто-кучевые, Ns - слоисто-дождевые, Cu - кучевые, Cb - кучево-дождевые. Подробнее классификацию облаков см. в Атласе облаков (PDF).
T - Температура воздуха - температура, измеренная на высоте 2 м над землей.
Td - Температура точки росы - температура, при понижении до которой содержащийся в воздухе водяной пар достигнет насыщения.
f - Относительная влажность воздуха - влажноcть воздуха, измеренная на высоте 2 м над землей.
Te - Эффективная температура - температура, которую ощущает одетый по сезону человек в тени. Характеристика душности погоды. При расчете учитывается влияние влажности воздуха и скорости ветра на теплоощущения человека.
Tes - Эффективная температура на солнце - температура, которую ощущает человек, с поправкой на солнечный нагрев. Характеристика знойности погоды. Зависит от высоты солнца над горизонтом, облачности и скорости ветра. Ночью, в пасмурную погоду, а также при ветре 12 м/с и более поправка равна нулю.
P - Атмосферное давление - приведенное к уровню моря атмосферное давление.
Po - Атмосферное давление - измеренное на уровне метеостанции атмосферное давление.
Tmin - Минимальная температура - минимум температуры воздуха на высоте 2 м над землей.
Tmax - Максимальная температура - максимум температуры воздуха на высоте 2 м над землей.
R - Количество осадков - Количество выпавших осадков за период времени, мм. При наведении курсора мыши на число - период времени, за который выпало указанное количество осадков.
R24 - Количество осадков - Количество выпавших осадков за 24 часа, мм.
S - Снежный покров - Высота снежного покрова, см. При наведении курсора мыши на число - состояние снежного покрова и степень покрытия местности в баллах.